Wink, TX

9:00 PM CDT on August 23, 2017 (GMT -0500)
Winkler County

Weather History for KINK - September, 2013

Change the Weather History Date:

Friday, September 27, 2013

  Actual Average Record
Temperature  
Mean Temperature 80 °F -  
Max Temperature 93 °F 85 °F 103 °F (1953)
Min Temperature 70 °F 56 °F 39 °F (1942)
Cooling Degree Days 16    
Growing Degree Days 30 (Base 50)    
Moisture  
Dew Point 62 °F    
Average Humidity 62    
Maximum Humidity 83    
Minimum Humidity 32    
Precipitation  
Precipitation 0.87 in - - ()
Sea Level Pressure  
Sea Level Pressure 29.68 in    
Wind  
Wind Speed 13 mph (SE)    
Max Wind Speed 22 mph    
Max Gust Speed 50 mph    
Visibility 10 miles    
Events Rain    
Averages and records for this station are not official NWS values.
T = Trace of Precipitation, MM = Missing Value Source: NWS Daily Summary

Daily Weather History Graph

Daily Weather History Graph

Search for Another Location

Airport or City:

Trip Planner

Search our weather history database for the weather conditions in past years. The results will help you decide how hot, cold, wet, or windy it might be!

Date:

Astronomy

Sep. 27, 2013 Rise Set
Actual Time 7:44 AM CDT 7:42 PM CDT
Civil Twilight 7:19 AM CDT 8:06 PM CDT
Nautical Twilight 6:51 AM CDT 8:35 PM CDT
Astronomical Twilight 6:23 AM CDT 9:03 PM CDT
Moon 1:01 AM CDT (9/27) 3:03 PM CDT (9/27)
Length of Visible Light 12h 46m
Length of Day
11h 58m
Last Quarter, 45% of the Moon is Illuminated
Sep 27
Last Quarter
Oct 4
New
Oct 11
First Quarter
Oct 18
Full
Oct 26
Last Quarter

Hourly Weather History & Observations

Time (CDT) Temp. Heat Index Dew Point Humidity Pressure Visibility Wind Dir Wind Speed Gust Speed Precip Events Conditions
12:53 AM 75.9 °F - 57.9 °F 54% 29.68 in 10.0 mi SE 13.8 mph 20.7 mph N/A   Clear
1:53 AM 75.0 °F - 59.0 °F 57% 29.66 in 10.0 mi SE 15.0 mph - N/A   Clear
2:53 AM 73.9 °F - 59.0 °F 59% 29.66 in 10.0 mi SE 10.4 mph - N/A   Clear
3:53 AM 73.0 °F - 60.1 °F 64% 29.65 in 10.0 mi SE 10.4 mph - N/A   Clear
4:53 AM 71.1 °F - 60.1 °F 68% 29.65 in 10.0 mi SE 9.2 mph - N/A   Clear
5:53 AM 70.0 °F - 59.0 °F 68% 29.65 in 10.0 mi SE 11.5 mph - N/A   Clear
6:53 AM 70.0 °F - 60.1 °F 71% 29.67 in 10.0 mi SE 12.7 mph - N/A   Clear
7:53 AM 70.0 °F - 60.1 °F 71% 29.69 in 10.0 mi SE 12.7 mph - N/A   Clear
8:53 AM 72.0 °F - 61.0 °F 68% 29.71 in 10.0 mi SSE 15.0 mph - N/A   Clear
9:53 AM 75.9 °F - 62.1 °F 62% 29.71 in 10.0 mi SSE 12.7 mph - N/A   Clear
10:53 AM 80.1 °F 81.2 °F 62.1 °F 54% 29.72 in 10.0 mi SSE 13.8 mph - N/A   Clear
11:53 AM 82.9 °F 83.3 °F 61.0 °F 47% 29.70 in 10.0 mi SSE 15.0 mph - N/A   Clear
12:53 PM 87.1 °F 86.5 °F 59.0 °F 39% 29.68 in 10.0 mi SSE 11.5 mph - N/A   Clear
1:53 PM 90.0 °F 88.8 °F 57.9 °F 34% 29.66 in 10.0 mi SSE 8.1 mph 18.4 mph N/A   Clear
2:53 PM 91.9 °F 90.8 °F 57.9 °F 32% 29.63 in 10.0 mi South 13.8 mph 19.6 mph N/A   Clear
3:53 PM 90.0 °F 89.1 °F 59.0 °F 35% 29.61 in 10.0 mi Variable 3.5 mph - N/A   Clear
4:53 PM 90.0 °F 90.0 °F 61.0 °F 38% 29.59 in 10.0 mi ESE 9.2 mph - N/A   Mostly Cloudy
5:14 PM 71.6 °F - 64.4 °F 78% 29.88 in 10.0 mi ESE 18.4 mph 49.5 mph 0.39 in Rain Heavy Rain
5:36 PM 71.6 °F - 66.2 °F 83% 29.76 in 10.0 mi NE 12.7 mph - 0.85 in Rain Light Rain
5:53 PM 75.0 °F - 68.0 °F 79% 29.63 in 10.0 mi ENE 6.9 mph - 0.85 in   Partly Cloudy
6:53 PM 75.9 °F - 70.0 °F 82% 29.65 in 10.0 mi East 8.1 mph - 0.01 in Rain Light Rain
7:53 PM 75.9 °F - 66.9 °F 74% 29.64 in 10.0 mi ESE 12.7 mph - 0.01 in   Scattered Clouds
8:53 PM 73.9 °F - 66.0 °F 76% 29.67 in 10.0 mi SE 21.9 mph 34.5 mph 0.00 in   Partly Cloudy
9:53 PM 72.0 °F - 64.9 °F 78% 29.68 in 10.0 mi SE 15.0 mph - N/A   Clear
10:53 PM 75.0 °F - 66.9 °F 76% 29.68 in 10.0 mi SE 16.1 mph 25.3 mph N/A   Clear
11:53 PM 75.0 °F - 66.9 °F 76% 29.68 in 10.0 mi SE 16.1 mph - N/A   Clear